{"data":{"norad_id":28868,"intl_designator":"2005-036A","name":"ANIK F1R","alt_names":[],"object_type":"PAYLOAD","status":"ACTIVE","operator":null,"country":"CA","launch_date":"2005-09-08","launch_site_code":"TYMSC","launch_vehicle":null,"mission":null,"orbit_class":"UNKNOWN","rcs_meters":12.5892,"size_class":null,"mass_kg":null,"dimensions":null,"purposes":["comms"],"wikipedia_slug":null,"has_3d_model":false,"image_url":null,"decayed_at":null,"tle_current":{"epoch":"2026-05-24T22:05:59.775072Z","epoch_age_seconds":77899,"freshness":"FRESH","line1":"1 28868U 05036A   26144.92083073 -.00000077  00000+0  00000+0 0  9998","line2":"2 28868   4.2557  76.8625 0004143 353.7110  36.1321  1.00271112 46228","mean_motion":1.00271112,"eccentricity":0.0004143,"inclination_deg":4.2557,"raan_deg":76.8625,"arg_perigee_deg":353.711,"mean_anomaly_deg":36.1321,"bstar":0,"rev_number":4622,"period_min":1436.1065428296,"perigee_km":35769.31470196,"apogee_km":35804.252555193,"semimajor_km":42164.920628577,"source":"CELESTRAK","updated_at":"2026-05-25T13:38:13.850071Z"}}}